Regional Weather Roundup
Issued by NWS

Home | Current Version | Previous Version | Graphics & Text | Print | Product List | Glossary On
Versions: 1 2 3 4 5 6 7 8 9 10 11 12 13 14 15 16 17 18 19 20 21 22 23 24 25 26 27 28 29 30 31 32 33 34 35 36 37 38 39 40 41 42 43 44 45 46 47 48 49 50
000
ASUS43 KLSX 262110
RWRMO

WEATHER SUMMARY FOR MISSOURI
NATIONAL WEATHER SERVICE SPRINGFIELD MO
400 PM CDT THU MAY 26 2016

NOTE: "FAIR" INDICATES FEW OR NO CLOUDS BELOW 12,000 FEET WITH NO
       SIGNIFICANT WEATHER AND/OR OBSTRUCTIONS TO VISIBILITY.
       CURRENT SKY AND/OR WEATHER CONDITIONS ARE NOT AVAILABLE FOR
       CHILLICOTHE AND FARMINGTON.

MOZ001>031-035>038-043-044-053-054-262200-
...NORTHERN AND WESTERN MISSOURI...

CITY           SKY/WX    TMP DP  RH WIND       PRES   REMARKS
KANSAS CTY INT TSTM      69  63  81 NE14      29.80R
KANSAS C DTWN  CLOUDY    77  66  68 SE15G24   29.74F
LEE`S SUMMIT   CLOUDY    73  68  84 VRB5      29.79R THUNDER
ST JOSEPH      TSTM      67  62  84 E36G49    29.83R
CHILLICOTHE      N/A     73  60  63 SE12      29.75F
KIRKSVILLE     PTSUNNY   79  62  56 S13       29.78F

$$
MOZ066>068-077>081-088>096-101>105-262200-
...SOUTHWEST MISSOURI...

CITY           SKY/WX    TMP DP  RH WIND       PRES   REMARKS
SPRINGFIELD    MOSUNNY   87  70  56 S20       29.85F HX  92
JOPLIN         MOSUNNY   86  72  62 S17G24    29.80F HX  92
BRANSON        CLOUDY    82  72  69 S17G28    29.90F

$$
MOZ032>034-039>042-045>050-055>058-069>072-262200-
...CENTRAL MISSOURI...

CITY           SKY/WX    TMP DP  RH WIND       PRES   REMARKS
COLUMBIA       SUNNY     88  61  40 VRB5      29.85F
JEFFERSON CITY SUNNY     87  63  44 VRB6      29.84F
ROLLA          SUNNY     82  69  64 SE10      29.88F
SEDALIA        SUNNY     83  67  58 E9        29.83F
WHITEMAN AFB   PTSUNNY   79  65  62 E6        29.79F
WARRENSBURG    PTSUNNY   77  63  61 E8        29.78F

$$
MOZ051-052-059>065-262200-
...EAST CENTRAL MISSOURI...

CITY           SKY/WX    TMP DP  RH WIND       PRES   REMARKS
ST LOUIS INTL  PTSUNNY   81  66  60 S12       29.93F
SPIRIT OF STL  CLOUDY   N/A N/A N/A S12       29.91F
ST CHARLES     CLOUDY    81  69  67 S10       29.90F

$$
MOZ072>076-082>087-097>100-106>115-262200-
...SOUTH CENTRAL AND SOUTHEAST MISSOURI...

CITY           SKY/WX    TMP DP  RH WIND       PRES   REMARKS
CAPE GIRARDEAU RAIN      65  64  97 SE13      29.99F
FARMINGTON     CLOUDY    73  68  84 S10       29.94F
POPLAR BLUFF   LGT RAIN  69  65  86 E8        29.96F
WEST PLAINS    MOSUNNY   83  70  64 S14       29.93S

$$



USA.gov is the U.S. government's official web portal to all federal, state and local government web resources and services.